Location: ECC Obs
(38.4314°N, 90.9815°W)
Time: 11:36:53
(UTC-05:00)

deb Explorer IX - Visible Passes

Search period start: 08 May 2021 00:00
Search period end: 18 May 2021 00:00
Orbit: 541 x 1098 km, 38.8° (Epoch: 07 May)

Date Brightness Start Highest point End Pass type
(mag) Time Alt. Az. Time Alt. Az. Time Alt. Az.
08 May ? 02:29:32 18° E 02:29:32 18° E 02:30:39 10° E visible
08 May ? 04:10:48 31° W 04:12:55 73° SSW 04:17:06 10° ESE visible
09 May ? 03:48:32 59° WSW 03:49:15 73° SSW 03:53:31 10° ESE visible
09 May ? 22:00:07 10° SSW 22:01:04 13° S 22:01:04 13° S visible
10 May ? 03:26:30 54° SE 03:26:30 54° SE 03:29:56 10° ESE visible
10 May ? 05:08:12 10° W 05:11:50 24° SSW 05:15:13 10° SSE visible
10 May ? 21:36:06 10° SSW 21:40:50 23° SSE 21:40:50 23° SSE visible
10 May ? 23:21:40 10° WSW 23:22:15 13° WSW 23:22:15 13° WSW visible
11 May ? 03:04:49 22° ESE 03:04:49 22° ESE 03:06:21 10° ESE visible
11 May ? 04:46:09 18° WSW 04:48:10 24° SSW 04:51:38 10° SSE visible
11 May ? 21:12:05 10° SSW 21:17:24 24° SSE 21:20:25 17° ESE visible
11 May ? 22:57:41 10° WSW 23:01:48 37° SW 23:01:48 37° SW visible
12 May ? 04:24:56 25° SSW 04:24:56 25° SSW 04:28:03 10° SSE visible
12 May ? 20:48:04 10° SSW 20:53:33 25° SSE 20:58:35 10° E visible
12 May ? 22:33:42 10° WSW 22:40:19 61° SSE 22:40:58 58° SE visible
13 May ? 00:21:10 10° W 00:22:18 16° W 00:22:18 16° W visible
13 May ? 04:04:06 12° SSE 04:04:06 12° SSE 04:04:29 10° SSE visible
13 May ? 22:09:42 10° WSW 22:16:28 62° SSE 22:19:37 29° E visible
13 May ? 23:57:11 10° W 00:00:56 36° W 00:00:56 36° W visible
14 May ? 21:45:43 10° WSW 21:52:37 63° SSE 21:57:51 15° E visible
14 May ? 23:33:12 10° W 23:39:09 72° W 23:39:09 72° W visible
15 May ? 21:21:44 10° WSW 21:28:44 63° SSE 21:34:59 10° E visible
15 May ? 23:09:13 10° W 23:15:59 87° N 23:17:01 64° E visible
16 May ? 00:56:58 10° W 00:58:17 16° W 00:58:17 16° W visible
16 May ? 20:57:45 10° WSW 21:04:51 64° SSE 21:11:15 10° E visible
16 May ? 22:45:13 10° W 22:52:08 87° N 22:54:39 39° E visible
17 May ? 00:33:00 10° W 00:35:54 27° W 00:35:54 27° W visible
17 May ? 20:33:47 10° WSW 20:40:57 64° SSE 20:47:31 10° E visible
17 May ? 22:21:14 10° W 22:28:16 87° N 22:32:06 25° E visible
